Location: *
(45.1961°N, 1.9694°E)
Time: 20:10:19
(UTC+00:00)

Meteor 1-5 Rocket - Pass Details

Date: 25 August 2019
Orbit: 789 x 915 km, 81.2° (Epoch: 14 October)

Event Time Altitude Azimuth Distance (km) Brightness Sun altitude
Rises 19:48:34 0° 179° (S) 3,465 7.1 -11.6°
Reaches altitude 10° 19:51:03 10° 176° (S) 2,513 6.4 -11.9°
Maximum altitude 19:56:40 63° 97° (E) 947 4.2 -12.8°
Drops below altitude 10° 20:02:08 10° 17° (NNE) 2,445 6.8 -13.6°
Sets 20:04:31 0° 14° (NNE) 3,365 7.6 -14.0°
